K4LEN Weather Reports


time (UTC)temp
C
wind
direction
speed
KPH
gust
KPH
rain 1hr
cm
rain 24hr
cm
rain mn
cm
humidity
%
barometer
mb
20260906122347 21 254 0.0 0.0 0.00 0.89 0.89 99 1016.5
20260906121345 21 255 0.0 0.0 0.00 0.89 0.89 99 1016.5
20260906120342 21 252 0.0 0.0 0.00 0.89 0.89 99 1016.6
20260906115339 21 253 0.0 0.0 0.00 0.89 0.89 99 1016.6
20260906114334 21 250 0.0 0.0 0.00 0.89 0.89 99 1016.5
20260906113334 21 251 0.0 0.0 0.00 0.89 0.89 99 1016.3
20260906112331 21 257 0.0 0.0 0.00 0.89 0.89 99 1016.5
20260906111331 21 272 1.6 1.6 0.00 0.89 0.89 99 1016.4
20260906110328 21 253 0.0 0.0 0.00 0.89 0.89 99 1016.8
20260906105329 20 242 0.0 0.0 0.00 0.89 0.89 99 1016.4
20260906104323 20 243 0.0 1.6 0.00 0.89 0.89 99 1016.5
20260906103320 21 249 0.0 0.0 0.00 0.89 0.89 99 1016.5
20260906102315 21 245 0.0 0.0 0.18 0.89 0.89 99 1016.6
20260906101312 21 243 0.0 0.0 0.00 0.86 0.86 99 1016.6
20260906100306 21 244 0.0 1.6 0.71 0.86 0.86 96 1017.1
20260906095305 21 13 14.5 16.1 0.30 0.74 0.74 97 1017.8
20260906094302 22 12 11.3 14.5 1.37 0.69 0.69 97 1018.0
20260906093300 22 269 1.6 3.2 0.48 0.46 0.46 98 1018.1
20260906092255 22 165 11.3 12.9 0.48 0.41 0.41 98 1018.0
20260906091253 22 281 3.2 3.2 0.89 0.33 0.33 97 1016.8
20260906090248 23 298 4.8 4.8 1.07 0.18 0.18 95 1016.7
20260906085247 24 261 4.8 4.8 0.00 0.00 0.00 86 1017.0
20260906084248 24 256 3.2 3.2 0.00 0.00 0.00 88 1017.1
20260906083244 24 302 6.4 9.7 0.00 0.00 0.00 89 1017.1
20260906082240 24 259 1.6 3.2 0.00 0.00 0.00 90 1016.9
20260906081236 24 267 1.6 3.2 0.00 0.00 0.00 90 1016.7
20260906080236 23 293 6.4 8.0 0.00 0.00 0.00 91 1016.6
20260906075235 23 270 4.8 4.8 0.00 0.00 0.00 91 1017.0
20260906074230 23 256 0.0 1.6 0.00 0.00 0.00 91 1016.8
20260906073225 23 276 3.2 4.8 0.00 0.00 0.00 91 1016.7
20260906072222 23 257 0.0 1.6 0.00 0.00 0.00 91 1016.8
20260906071217 24 264 4.8 9.7 0.00 0.00 0.00 91 1016.7
20260906070216 24 278 8.0 11.3 0.00 0.00 0.00 92 1017.1
20260906065210 24 286 6.4 11.3 0.00 0.00 0.00 93 1017.3
20260906064207 23 306 3.2 8.0 0.00 0.00 0.00 94 1016.9
20260906063203 22 242 4.8 4.8 0.00 0.00 0.00 99 1016.7
20260906062203 22 255 0.0 0.0 0.00 0.00 0.00 99 1016.2
20260906061200 22 252 0.0 0.0 0.00 0.00 0.00 99 1016.1
20260906060159 23 252 0.0 0.0 0.00 0.00 0.00 99 1016.0
20260906055155 23 252 0.0 0.0 0.00 0.00 0.00 99 1015.9
20260906054151 23 252 0.0 0.0 0.00 0.00 0.00 99 1015.8
20260906053149 23 252 0.0 0.0 0.00 0.00 0.00 99 1015.7
20260906052147 23 257 0.0 0.0 0.00 0.00 0.00 99 1015.8
20260906051143 23 247 0.0 0.0 0.00 0.00 0.00 99 1015.9
20260906050139 23 247 0.0 0.0 0.00 0.00 0.00 99 1016.0
20260906045139 23 248 0.0 0.0 0.00 0.00 0.00 99 1016.2
20260906044136 23 248 0.0 0.0 0.00 0.00 0.00 99 1016.7
20260906043133 23 248 0.0 0.0 0.00 0.00 0.00 99 1016.7
20260906042133 23 238 0.0 0.0 0.00 0.00 0.00 99 1016.7
20260906041129 23 240 0.0 0.0 0.00 0.00 0.00 98 1016.6
20260906040126 24 253 0.0 0.0 0.00 0.00 0.00 97 1016.4
20260906035123 24 253 0.0 0.0 0.00 0.00 0.00 97 1016.4
20260906034124 24 272 3.2 3.2 0.00 0.00 0.00 97 1016.2
20260906033120 24 267 1.6 1.6 0.00 0.00 0.00 97 1016.3
20260906032116 24 249 0.0 0.0 0.00 0.00 0.00 97 1016.2
20260906031113 24 244 0.0 0.0 0.00 0.00 0.00 96 1016.4
20260906030113 25 261 1.6 1.6 0.00 0.00 0.00 96 1016.3
20260906025111 25 208 0.0 0.0 0.00 0.00 0.00 96 1016.3
20260906024107 25 208 0.0 0.0 0.00 0.00 0.00 96 1015.8
20260906023103 25 208 0.0 0.0 0.00 0.00 0.00 95 1015.7
20260906022100 25 208 0.0 0.0 0.00 0.00 0.00 95 1015.7
20260906021054 25 208 0.0 0.0 0.00 0.00 0.00 94 1015.4
20260906020054 25 208 0.0 0.0 0.00 0.00 0.00 94 1015.1
20260906015053 25 208 0.0 0.0 0.00 0.00 0.00 93 1015.3
20260906014050 26 208 0.0 0.0 0.00 0.00 0.00 93 1015.0
20260906013046 26 208 0.0 0.0 0.00 0.00 0.00 92 1015.3
20260906012046 26 208 0.0 1.6 0.00 0.00 0.00 91 1015.1
20260906011042 27 208 0.0 0.0 0.00 0.00 0.00 89 1015.1
20260906010040 27 208 0.0 1.6 0.00 0.00 0.00 88 1015.0
20260906005038 27 208 0.0 0.0 0.00 0.00 0.00 86 1015.0
20260906004039 28 208 0.0 0.0 0.00 0.00 0.00 85 1015.1
20260906003036 28 208 0.0 0.0 0.00 0.00 0.00 83 1014.8
20260906002031 29 208 0.0 0.0 0.00 0.00 0.00 80 1014.8
20260906001027 30 208 0.0 0.0 0.00 0.00 0.00 75 1014.7
20260906000024 31 208 0.0 0.0 0.00 0.00 0.00 72 1014.8
20260905235019 33 208 0.0 0.0 0.00 0.00 0.00 68 1014.9
20260905234014 33 209 0.0 0.0 0.00 0.00 0.00 61 1015.0
20260905233015 33 209 1.6 1.6 0.00 0.00 0.00 61 1014.8
20260905232012 33 209 1.6 1.6 0.00 0.00 0.00 60 1015.1
20260905231009 33 209 1.6 1.6 0.00 0.00 0.00 59 1014.8
20260905230006 34 211 4.8 4.8 0.00 0.00 0.00 58 1014.7
20260905225002 35 215 1.6 1.6 0.00 0.00 0.00 55 1014.8
20260905224002 35 213 1.6 3.2 0.00 0.00 0.00 54 1014.6
20260905223001 35 212 4.8 4.8 0.00 0.00 0.00 54 1014.9
20260905221956 35 215 4.8 8.0 0.00 0.00 0.00 55 1015.0
20260905220955 35 205 3.2 3.2 0.00 0.00 0.00 55 1015.1
20260905215949 35 215 8.0 9.7 0.00 0.00 0.00 56 1014.9
20260905214948 35 218 3.2 3.2 0.00 0.00 0.00 55 1014.9
20260905213943 35 241 3.2 3.2 0.00 0.00 0.00 56 1014.9
20260905212940 35 218 3.2 3.2 0.00 0.00 0.00 53 1015.0
20260905211940 35 247 1.6 1.6 0.00 0.00 0.00 54 1015.2
20260905210938 36 242 4.8 4.8 0.00 0.00 0.00 54 1015.0
20260905205938 36 196 6.4 9.7 0.00 0.00 0.00 53 1015.2
20260905204937 35 202 1.6 1.6 0.00 0.00 0.00 53 1015.4
20260905203932 35 230 3.2 4.8 0.00 0.00 0.00 55 1015.4
20260905202929 35 160 11.3 11.3 0.00 0.00 0.00 57 1015.5
20260905201926 35 152 11.3 16.1 0.00 0.00 0.00 55 1015.5
20260905200921 35 243 1.6 1.6 0.00 0.00 0.00 56 1016.0
20260905195921 35 250 1.6 1.6 0.00 0.00 0.00 58 1016.1
20260905194918 35 252 3.2 3.2 0.00 0.00 0.00 59 1016.3
20260905193917 35 234 3.2 4.8 0.00 0.00 0.00 57 1016.4
20260905192913 35 247 1.6 1.6 0.00 0.00 0.00 58 1016.8
20260905191908 33 238 8.0 11.3 0.00 0.00 0.00 60 1016.9
20260905190908 34 241 8.0 11.3 0.00 0.00 0.00 60 1017.2
20260905185904 35 237 3.2 4.8 0.00 0.00 0.00 60 1017.2
20260905184904 35 246 3.2 3.2 0.00 0.00 0.00 60 1017.2
20260905183903 35 240 3.2 4.8 0.00 0.00 0.00 60 1017.1
20260905182859 35 253 0.0 1.6 0.00 0.00 0.00 61 1017.7
20260905181854 34 257 1.6 3.2 0.00 0.00 0.00 61 1017.6
20260905180853 33 242 0.0 1.6 0.00 0.00 0.00 60 1017.4
20260905175849 34 241 6.4 9.7 0.00 0.00 0.00 61 1017.7
20260905174850 35 241 4.8 8.0 0.00 0.00 0.00 58 1017.7
20260905173847 33 243 4.8 4.8 0.00 0.00 0.00 61 1017.6
20260905172843 34 273 4.8 4.8 0.00 0.00 0.00 59 1017.8
20260905171843 33 241 6.4 8.0 0.00 0.00 0.00 63 1017.9
20260905170842 33 240 8.0 8.0 0.00 0.00 0.00 62 1017.8
20260905165837 33 223 0.0 0.0 0.00 0.00 0.00 65 1017.8
20260905164832 32 232 9.7 11.3 0.00 0.00 0.00 65 1018.2
20260905163828 32 197 1.6 1.6 0.00 0.00 0.00 64 1018.2
20260905162826 32 187 11.3 11.3 0.00 0.00 0.00 67 1018.5
20260905161826 32 216 1.6 1.6 0.00 0.00 0.00 67 1018.4
20260905160824 32 244 1.6 1.6 0.00 0.00 0.00 66 1018.6
20260905155819 32 202 11.3 14.5 0.00 0.00 0.00 66 1018.9
20260905154819 32 258 1.6 3.2 0.00 0.00 0.00 67 1019.0
20260905153815 31 263 0.0 0.0 0.00 0.00 0.00 71 1018.8
20260905152811 31 263 0.0 0.0 0.00 0.00 0.00 71 1018.8
20260905151812 31 295 4.8 4.8 0.00 0.00 0.00 71 1018.8
20260905150807 31 255 1.6 1.6 0.00 0.00 0.00 72 1018.9
20260905145804 31 246 0.0 0.0 0.00 0.00 0.00 70 1018.9
20260905144803 30 246 0.0 0.0 0.00 0.00 0.00 76 1019.3
20260905143803 30 246 0.0 0.0 0.00 0.00 0.00 76 1019.0
20260905142803 28 246 0.0 0.0 0.00 0.00 0.00 79 1019.1
20260905141759 27 245 0.0 1.6 0.00 0.00 0.00 83 1019.3
20260905140756 27 253 0.0 0.0 0.00 0.00 0.00 87 1019.0
20260905135755 25 253 0.0 0.0 0.00 0.00 0.00 92 1018.9
20260905134751 24 252 0.0 0.0 0.00 0.00 0.00 96 1018.9
20260905133751 24 252 0.0 0.0 0.00 0.00 0.00 98 1019.0
20260905132745 23 258 0.0 0.0 0.00 0.00 0.00 99 1019.0
20260905131741 23 252 0.0 0.0 0.00 0.00 0.00 99 1018.9
20260905130737 23 252 0.0 0.0 0.00 0.00 0.00 99 1018.7
20260905125732 22 252 0.0 0.0 0.00 0.00 0.00 99 1018.8
20260905124729 22 252 0.0 0.0 0.00 0.00 0.00 99 1018.9
20260905123725 22 252 0.0 0.0 0.00 0.00 0.00 99 1019.0